Location: Bothwell
(42.3833°S, 147.0000°E)
Time: 20:26:35
(UTC+11:00)

AO-85 - Pass Details

Date: 28 September 2022
Orbit: 513 x 757 km, 64.8° (Epoch: 24 November)

Event Time Altitude Azimuth Distance (km) Brightness Sun altitude
Rises 04:35:45 0° 205° (SSW) 3,073 ? -14.6°
Reaches altitude 10° 04:38:30 10° 190° (S) 2,193 ? -14.1°
Maximum altitude 04:42:30 23° 138° (SE) 1,532 ? -13.4°
Drops below altitude 10° 04:46:37 10° 85° (E) 2,270 ? -12.7°
Sets 04:49:31 0° 71° (ENE) 3,208 ? -12.2°
